Flag for French Polynesia Weather past 2 weeks in Taiohae, Marquesas Islands, French Polynesia

Now
85 °F

Partly sunny.


Feels Like: 94 °F
Forecast: 79 / 85 °F
Wind: 12 mph from Southeast

Location: Atuona

Current Time: Mar 6, 2015 at 11:31:30 AM

Latest Report: Mar 6, 2015 at 10:30 AM


Visibility: 22 mi

Pressure: 29.77 "Hg

Humidity: 72%

Dew point: 75 °F

Location of TaiohaeLocation

Historic Weather in Taiohae — Graph

°F

Taiohae temperature yesterday

Maximum temperature yesterday: 87 °F (at 1:30 PM)
Minimum temperature yesterday: 77 °F (at 6:30 AM)
Average temperature yesterday: 82 °F

Past Weeks' High & Low Weather Summary

 TemperatureHumidityPressure
High90 °F (Feb 23, 11:30 AM)96% (Feb 21, 6:30 PM)29.94 "Hg (Feb 21, 6:30 PM)
Low72 °F (Feb 22, 5:30 AM)59% (Feb 21, 11:30 AM)29.70 "Hg (Mar 5, 3:30 PM)
Average80 °F78%29.82 "Hg
* Reported Feb 19 9:30 AM — Mar 6 9:30 AM, Taiohae, Weather by CustomWeather, © 2015

Note: Actual official high and low records may vary slightly from our data, if they occured in-between our weather recording intervals... More about our weather records

Advertising

Taiohae weather history for previous 24 hours

 ConditionsComfort  
Time TempWeatherWind HumidityBarometerVisibility
9:30 AM
Fri, Mar 6
85 °FPartly sunny.12 mph73%29.78 "Hg22 mi
8:30 AM83 °FScattered clouds.12 mph73%29.79 "Hg22 mi
7:30 AM82 °FScattered clouds.13 mph75%29.78 "Hg22 mi
6:30 AM80 °FScattered clouds.5 mph78%29.75 "Hg22 mi
5:30 AM80 °FScattered clouds.12 mph77%29.74 "Hg19 mi
4:30 AM80 °FWarm.10 mph77%29.72 "HgN/A
3:30 AM80 °FWarm.9 mph77%29.70 "HgN/A
2:30 AM79 °FWarm.7 mph81%29.71 "HgN/A
1:30 AM80 °FWarm.8 mph82%29.72 "HgN/A
12:30 AM80 °FWarm.8 mph83%29.74 "HgN/A
11:30 PM
Thu, Mar 5
81 °FWarm.13 mph80%29.75 "HgN/A
10:30 PM81 °FWarm.13 mph77%29.77 "HgN/A
9:30 PM82 °FWarm.10 mph77%29.78 "HgN/A
8:30 PM82 °FWarm.12 mph76%29.76 "HgN/A
7:30 PM82 °FWarm.9 mph76%29.75 "HgN/A
6:30 PM82 °FWarm.12 mph74%29.74 "HgN/A
5:30 PM82 °FWarm.9 mph74%29.72 "HgN/A
4:30 PM83 °FScattered clouds.12 mph72%29.70 "Hg22 mi
3:30 PM85 °FWarm.12 mph70%29.70 "HgN/A
2:30 PM86 °FPassing clouds.12 mph67%29.71 "Hg22 mi
1:30 PM87 °FScattered clouds.14 mph69%29.72 "Hg22 mi
12:30 PM86 °FWarm.14 mph69%29.76 "HgN/A
Weather by CustomWeather, © 2015

See weather overviewHow to use our weather pages